Location: Newark
(34.0131°N, 4.3314°W)
Time: 08:25:58
(UTC+00:00)

A-11 Canister half - Pass Details

Date: 27 October 2019
Orbit: 1514 x 1686 km, 47.2° (Epoch: 13 November)

Event Time Altitude Azimuth Distance (km) Brightness Sun altitude
Rises 03:09:51 0° 285° (WNW) 4,901 - -42.3°
Reaches altitude 10° 03:13:26 10° 293° (WNW) 3,894 - -41.6°
Exits shadow 03:22:07 37° 354° (N) 2,318 9.8 -39.8°
Maximum altitude 03:22:27 37° 359° (N) 2,313 9.8 -39.7°
Drops below altitude 10° 03:31:11 10° 64° (ENE) 3,769 11.7 -38.0°
Sets 03:34:35 0° 73° (ENE) 4,729 12.5 -37.3°
